Location: Wildlife_Club
(35.6000°N, 81.4330°W)
Time: 04:57:21
(UTC-04:00)

Vanguard 1 Rocket - Visible Passes

Search period start: 19 June 2019 00:00
Search period end: 29 June 2019 00:00
Orbit: 652 x 4224 km, 34.3° (Epoch: 18 June)

Date Brightness Start Highest point End Pass type
(mag) Time Alt. Az. Time Alt. Az. Time Alt. Az.
19 Jun 7.9 21:44:12 10° W 21:54:55 82° S 22:00:24 11° E visible
20 Jun 8.5 00:13:53 10° W 00:17:40 29° WSW 00:17:40 29° WSW visible
20 Jun 7.4 23:00:50 10° W 23:09:04 65° SSW 23:10:23 50° SE visible
21 Jun 8.0 21:46:55 10° W 21:57:54 80° S 22:03:05 14° ESE visible
22 Jun 8.8 00:16:57 10° W 00:20:21 24° WSW 00:20:21 24° WSW visible
22 Jun 7.5 23:03:38 10° W 23:11:56 54° SSW 23:13:03 47° SSE visible
23 Jun 8.0 21:49:37 10° W 22:00:51 75° SSW 22:05:45 17° ESE visible
24 Jun 9.2 00:20:11 10° W 00:23:01 19° WSW 00:23:01 19° WSW visible
24 Jun 7.9 23:06:28 10° W 23:14:44 44° SSW 23:15:43 41° S visible
25 Jun 8.2 21:52:18 10° W 22:03:45 67° SSW 22:08:24 19° ESE visible
26 Jun 9.5 00:23:46 10° W 00:25:40 14° WSW 00:25:40 14° WSW visible
26 Jun 8.3 23:09:23 10° W 23:17:22 35° SW 23:18:22 33° SSW visible
27 Jun 8.4 21:54:58 10° W 22:06:33 58° SSW 22:11:04 21° SE visible
28 Jun 8.8 23:12:27 10° W 23:19:52 27° SW 23:21:02 26° SSW visible
